| time (UTC) | temp F | wind direction | speed MPH | gust MPH | rain 1hr in | rain 24hr in | rain mn in | humidity % | barometer mb |
| 20260504120112 | 32 | 35 | 0.0 | 0.0 | 0.00 | 0.00 | 0.00 | 74 | 1003.6 |
| 20260504081525 | 35 | 98 | 2.0 | 4.0 | 0.00 | 0.00 | 0.00 | 67 | 1003.5 |
| 20260504050113 | 45 | 148 | 2.0 | 5.0 | 0.00 | 0.00 | 0.00 | 43 | 1004.0 |
| 20260504044544 | 48 | 114 | 2.0 | 6.0 | 0.00 | 0.00 | 0.00 | 39 | 1004.1 |
| 20260504043037 | 49 | 119 | 4.0 | 10.0 | 0.00 | 0.00 | 0.00 | 37 | 1004.0 |
| 20260504041536 | 51 | 136 | 7.0 | 10.0 | 0.00 | 0.00 | 0.00 | 34 | 1004.0 |
| 20260504040032 | 51 | 98 | 3.0 | 9.0 | 0.00 | 0.00 | 0.00 | 32 | 1004.1 |
| 20260504034538 | 52 | 59 | 3.0 | 5.0 | 0.00 | 0.00 | 0.00 | 27 | 1004.0 |
| 20260504033028 | 53 | 57 | 2.0 | 6.0 | 0.00 | 0.00 | 0.00 | 26 | 1003.9 |
| 20260504031522 | 54 | 343 | 5.0 | 10.0 | 0.00 | 0.00 | 0.00 | 26 | 1003.7 |
| 20260504030029 | 53 | 39 | 2.0 | 5.0 | 0.00 | 0.00 | 0.00 | 27 | 1003.5 |
| 20260504024515 | 57 | 36 | 3.0 | 8.0 | 0.00 | 0.00 | 0.00 | 24 | 1003.4 |
| 20260504023041 | 59 | 40 | 2.0 | 5.0 | 0.00 | 0.00 | 0.00 | 22 | 1003.3 |
| 20260504021537 | 61 | 40 | 2.0 | 4.0 | 0.00 | 0.00 | 0.00 | 20 | 1003.3 |
| 20260504020002 | 62 | 40 | 2.0 | 6.0 | 0.00 | 0.00 | 0.00 | 19 | 1003.3 |
| 20260504014600 | 64 | 36 | 4.0 | 10.0 | 0.00 | 0.00 | 0.00 | 18 | 1003.2 |
| 20260504013056 | 65 | 30 | 4.0 | 10.0 | 0.00 | 0.00 | 0.00 | 18 | 1003.3 |
| 20260504011554 | 66 | 5 | 5.0 | 10.0 | 0.00 | 0.00 | 0.00 | 17 | 1003.3 |
| 20260504010054 | 66 | 33 | 8.0 | 13.0 | 0.00 | 0.00 | 0.00 | 16 | 1003.4 |
| 20260504004546 | 65 | 319 | 5.0 | 10.0 | 0.00 | 0.00 | 0.00 | 19 | 1003.6 |
| 20260504003046 | 65 | 58 | 2.0 | 10.0 | 0.00 | 0.00 | 0.00 | 18 | 1003.6 |
| 20260504001552 | 66 | 337 | 7.0 | 14.0 | 0.00 | 0.00 | 0.00 | 18 | 1003.8 |
| 20260504000037 | 67 | 300 | 8.0 | 13.0 | 0.00 | 0.00 | 0.00 | 19 | 1003.9 |
| 20260503234535 | 67 | 330 | 5.0 | 10.0 | 0.00 | 0.00 | 0.00 | 19 | 1004.1 |
| 20260503233030 | 66 | 49 | 5.0 | 11.0 | 0.00 | 0.00 | 0.00 | 17 | 1004.0 |
| 20260503231542 | 66 | 90 | 0.0 | 8.0 | 0.00 | 0.00 | 0.00 | 16 | 1004.1 |
| 20260503230027 | 67 | 105 | 2.0 | 12.0 | 0.00 | 0.00 | 0.00 | 17 | 1004.2 |
| 20260503224525 | 67 | 81 | 8.0 | 13.0 | 0.00 | 0.00 | 0.00 | 16 | 1004.3 |
| 20260503223027 | 68 | 65 | 6.0 | 12.0 | 0.00 | 0.00 | 0.00 | 16 | 1004.4 |
| 20260503221520 | 68 | 87 | 4.0 | 9.0 | 0.00 | 0.00 | 0.00 | 16 | 1004.4 |
| 20260503220018 | 67 | 85 | 2.0 | 6.0 | 0.00 | 0.00 | 0.00 | 17 | 1004.6 |
| 20260503214516 | 65 | 202 | 2.0 | 10.0 | 0.00 | 0.00 | 0.00 | 17 | 1005.0 |
| 20260503213014 | 68 | 233 | 7.0 | 11.0 | 0.00 | 0.00 | 0.00 | 16 | 1005.1 |
| 20260503211603 | 67 | 28 | 9.0 | 14.0 | 0.00 | 0.00 | 0.00 | 20 | 1005.4 |
| 20260503210041 | 66 | 57 | 6.0 | 12.0 | 0.00 | 0.00 | 0.00 | 17 | 1005.5 |
| 20260503204626 | 67 | 40 | 5.0 | 13.0 | 0.00 | 0.00 | 0.00 | 18 | 1005.7 |
| 20260503203012 | 70 | 26 | 5.0 | 18.0 | 0.00 | 0.00 | 0.00 | 18 | 1006.1 |
| 20260503201501 | 69 | 52 | 4.0 | 14.0 | 0.00 | 0.00 | 0.00 | 16 | 1006.3 |
| 20260503194558 | 68 | 51 | 7.0 | 13.0 | 0.00 | 0.00 | 0.00 | 18 | 1006.8 |
| 20260503193057 | 67 | 12 | 4.0 | 17.0 | 0.00 | 0.00 | 0.00 | 19 | 1007.0 |
| 20260503191604 | 67 | 51 | 8.0 | 19.0 | 0.00 | 0.00 | 0.00 | 15 | 1007.0 |
| 20260503190052 | 68 | 333 | 6.0 | 12.0 | 0.00 | 0.00 | 0.00 | 18 | 1007.4 |
| 20260503184607 | 65 | 109 | 10.0 | 18.0 | 0.00 | 0.00 | 0.00 | 15 | 1007.6 |
| 20260503183049 | 65 | 60 | 8.0 | 22.0 | 0.00 | 0.00 | 0.00 | 16 | 1007.8 |
| 20260503181547 | 65 | 74 | 10.0 | 18.0 | 0.00 | 0.00 | 0.00 | 16 | 1008.0 |
| 20260503180044 | 66 | 331 | 5.0 | 14.0 | 0.00 | 0.00 | 0.00 | 20 | 1008.4 |
| 20260503174553 | 65 | 63 | 8.0 | 15.0 | 0.00 | 0.00 | 0.00 | 19 | 1008.4 |
| 20260503173041 | 65 | 96 | 5.0 | 18.0 | 0.00 | 0.00 | 0.00 | 19 | 1008.8 |
| 20260503171516 | 65 | 16 | 7.0 | 16.0 | 0.00 | 0.00 | 0.00 | 22 | 1008.8 |